Weather in Weno

The Federated States of Micronesia     7°27′49″N   151°50′46″E
temp.,
°C
wind,
m/s
gust,
m/s
humid.,
%
clouds,
%
prec.,
mm/h
press.,
hPa
HPBL,
m
10 august, wed
wed1001:00+29ne457373 1.0 1009710
04:00+29ne447360 1.0 1008832
07:00+29ene55745 0.8 1010831
10:00+29ene45735 0.9 1010859
13:00+29ene457218 0.0 1008880
16:00+29e6676100 1.2 1008638
19:00+29e6777100 1.4 1009656
22:00+29ese6774100 4.5 1011818
11 august, thu
thu1101:00+29ese5676100 2.9 1009775
04:00+28ese4576100 9.0 1009564
07:00+28se6778100 6.7 1010533
10:00+28sse6772100 8.7 1011788
13:00+29sse5672100 0.0 1009847
16:00+29sse4474100 0.2 1008749
19:00+28se3376100 2.6 1010379
22:00+28se3376100 3.7 1011192
12 august, fri
fri1201:00+28se2274100 4.8 1009302
04:00+28sse127285 5.5 1009555
07:00+28se117382 1.1 1011323
10:00+28ese1273100 1.6 1011350
13:00+29e126934 0.2 1009819
16:00+29ne126514 0.2 1009966
19:00+29ne336822 0.0 1010866
22:00+29ne336916 0.1 1011688
13 august, sat
sat1301:00+29nne22685 0.1 1010717
04:00+28nne227388 5.6 1010122
07:00+28n117049 3.5 1011283
10:00+28nw22695 3.5 1011663
13:00+28nnw226968 0.0 1009723
16:00+28n337081 2.0 1009648
19:00+28nne347389 3.4 1010406
22:00+27e337773 9.1 1011289
14 august, sun
sun1401:00+27sse4480100 4.9 1009348
04:00+25sse6692100 14.4 1009493
07:00+25se101295100 36.0 1010682
10:00+25s5785100 58.4 1011528
13:00+26ssw5581100 0.1 1010589
16:00+27sw5578100 0.1 1009617
19:00+27sw4476100 0.0 1011696
22:00+27sw3374100 0.0 1012726